Regional Weather Roundup
Issued by NWS Green Bay, WI

Home | Current Version | Previous Version | Text Only | Print | Product List | Glossary On
Versions: 1 2 3 4 5 6 7 8 9 10 11 12 13 14 15 16 17 18 19 20 21 22 23 24 25 26 27 28 29 30 31 32 33 34 35 36 37 38 39 40 41 42 43 44 45 46 47 48 49 50
000
ASUS43 KGRB 250011
RWRGRB

NORTH-CENTRAL AND NORTHEAST WISCONSIN REGIONAL WEATHER ROUNDUP
NATIONAL WEATHER SERVICE GREEN BAY WI
600 PM CST FRI FEB 24 2017

WIZ005-009-010>012-018-019-250100-
NORTH CENTRAL WISCONSIN

CITY           SKY/WX    TMP DP  RH WIND       PRES   REMARKS
IRONWOOD       LGT SNOW  17  14  88 N8        29.80S VSB 1   WCI   7
MANITOWISH WTR LGT SNOW  17  14  90 N14G20    29.70S WCI   3
ARBOR VITAE    LGT SNOW  19  15  83 N15         N/A  WCI   5
EAGLE RIVER    LGT SNOW  17  12  80 N14G20    29.67S WCI   3
LAND O LAKES   LGT SNOW  18  14  86 N10G18    29.70R WCI   6
RHINELANDER    LGT SNOW  19  16  88 VRB7      29.65F VSB 1   WCI  10
PHILLIPS       LGT SNOW  18  14  86 N9G20     29.71R WCI   6
ANTIGO         CLOUDY    19  15  85 N22G28    29.62R FOG     WCI   2
TOMAHAWK       LGT SNOW  19  14  83 N8        29.68R WCI   8
MERRILL        NOT AVBL
$$

WIZ013-073-250100-
NORTHEAST WISCONSIN

CITY           SKY/WX    TMP DP  RH WIND       PRES   REMARKS
IRON MOUNTAIN  MIX PCPN  21  15  78 N17G28    29.64F WCI   7
MARINETTE      MIX PCPN  25  23  92 N13       29.62S FOG
OCONTO         CLOUDY    25  23  93 N10G17    29.60F
$$

WIZ017-030-035>037-045-250100-
CENTRAL WISCONSIN

CITY           SKY/WX    TMP DP  RH WIND       PRES   REMARKS
MEDFORD        LGT SNOW  19  16  86 N9        29.67R WCI   8
WAUSAU         CLOUDY    21  16  81 N14G21    29.64R WCI   8
MOSINEE        CLOUDY    21  19  93 N15G24    29.65R WCI   8
MARSHFIELD     LGT SNOW  22  17  81 N15G22    29.64R WCI   9
WISC RAPIDS    MIX PCPN  25  21  85 N15G25    29.65S
STEVENS POINT  CLOUDY    22  19  87 N9G20     29.64R
WAUPACA        CLOUDY    28  25  89 N9        29.62R FOG
SHAWANO        MIX PCPN  28  25  89 N13G20    29.61F
CLINTONVILLE   MIX PCPN  27  25  93 N9        29.61S
WAUTOMA        LGT SNOW  26  24  92 N9        29.62R FOG
$$

WIZ038-039-048-051-250100-
FOX VALLEY

CITY           SKY/WX    TMP DP  RH WIND       PRES   REMARKS
NWS GREEN BAY  FRZ RAIN  27  26  96 N21G29    29.59R FOG
APPLETON       CLOUDY    25  25 100 N16G24    29.56S FOG
OSHKOSH        FRZ RAIN  26  24  92 N17       29.58R FOG
FOND DU LAC    LGT SNOW  28  24  85 N16       29.57R FOG
$$

WIZ022-050-052-250100-
EAST CENTRAL WISCONSIN

CITY           SKY/WX    TMP DP  RH WIND       PRES   REMARKS
EPHRAIM        MIX PCPN  26  26 100 N13G21    29.56S
WASHINGTON ISL LGT SNOW  26  25  94 N15       29.58F
STURGEON BAY   MIX PCPN  26  25  96 MISG      29.58R FOG
MANITOWOC      MIX PCPN  28  26  92 N16       29.55R
SHEBOYGAN      CLOUDY    29  26  89 N16G25    29.53R FOG
$$

LMZ563-521-522-541>543-250100-
LAKESHORE

STATION/POSITION TIME  TEMP    WIND        PRES    VSBY  WAVE
                       AIR SEA DIR/SP/G                  HT/PER
                 (UTC) (F)     (DEG/KT/KT) (MB)    (MI)  (FT/S)
SHEBOYGAN LKSHOR 0000   31     360/  9/ 11 1000.2R
KEWAUNEE LKSHORE 2348   28     350/ 11/ 16 1000.4R
NORTHPORT PIER   2340   27      10/  5/  6 1002.4F
SISTER BAY LKSHO 2335   26        CALM       N/A
MENOMINEE LKSHOR 2348   25     360/ 29/ 29 1001.8F
$$




USA.gov is the U.S. government's official web portal to all federal, state and local government web resources and services.